Caldwell, NJ

3:25 AM EST on November 14, 2019 (GMT -0500)
Essex County

Weather History for KCDW - September, 2019

Change the Weather History Date:

Wednesday, September 4, 2019

  Actual Average Record
Temperature  
Mean Temperature 76 °F -  
Max Temperature 90 °F 80 °F 95 °F (1953)
Min Temperature 63 °F 56 °F 43 °F (1967)
Cooling Degree Days 12    
Growing Degree Days 26 (Base 50)    
Moisture  
Dew Point 66 °F    
Average Humidity 76    
Maximum Humidity 97    
Minimum Humidity 52    
Precipitation  
Precipitation 0.00 in - - ()
Sea Level Pressure  
Sea Level Pressure 29.96 in    
Wind  
Wind Speed 3 mph ()    
Max Wind Speed 13 mph    
Max Gust Speed 21 mph    
Visibility 9.3 miles    
Events      
Averages and records for this station are not official NWS values.
T = Trace of Precipitation, MM = Missing Value Source: Averaged Metar Reports

Daily Weather History Graph

Daily Weather History Graph

Search for Another Location

Airport or City:

Astronomy

Sep. 04, 2019 Rise Set
Actual Time 6:26 AM EDT 7:25 PM EDT
Civil Twilight 5:58 AM EDT 7:52 PM EDT
Nautical Twilight 5:25 AM EDT 8:26 PM EDT
Astronomical Twilight 4:50 AM EDT 9:00 PM EDT
Moon 12:27 PM EDT (9/4) 10:55 PM EDT (9/4)
Length of Visible Light 13h 54m
Length of Day
12h 58m
Waxing Crescent, 34% of the Moon is Illuminated
Sep 4
Waxing Crescent
Sep 5
First Quarter
Sep 14
Full
Sep 21
Last Quarter
Sep 28
New

Hourly Weather History & Observations

Time (EDT) Temp. Heat Index Dew Point Humidity Pressure Visibility Wind Dir Wind Speed Gust Speed Precip Events Conditions
12:53 AM 64.9 °F - 60.1 °F 84% 30.06 in 10.0 mi Calm Calm - N/A   Clear
1:53 AM 64.0 °F - 60.1 °F 87% 30.04 in 10.0 mi Calm Calm - N/A   Clear
2:53 AM 63.0 °F - 60.1 °F 90% 30.01 in 10.0 mi Calm Calm - N/A   Clear
3:37 AM 63.0 °F - 60.1 °F 90% 29.99 in 10.0 mi Calm Calm - N/A   Scattered Clouds
3:46 AM 64.0 °F - 60.1 °F 87% 29.99 in 10.0 mi South 3.5 mph - N/A   Mostly Cloudy
3:53 AM 64.9 °F - 61.0 °F 87% 30.01 in 10.0 mi Calm Calm - N/A   Mostly Cloudy
4:53 AM 66.0 °F - 63.0 °F 90% 30.01 in 9.0 mi WSW 3.5 mph - N/A   Overcast
5:53 AM 66.9 °F - 66.0 °F 97% 30.01 in 4.0 mi WSW 3.5 mph - N/A   Overcast
6:32 AM 66.9 °F - 64.9 °F 93% 30.01 in 7.0 mi WSW 3.5 mph - N/A   Overcast
6:53 AM 68.0 °F - 64.9 °F 90% 30.01 in 8.0 mi SSW 3.5 mph - N/A   Overcast
7:53 AM 69.1 °F - 64.9 °F 87% 30.00 in 8.0 mi South 4.6 mph - N/A   Overcast
8:53 AM 70.0 °F - 66.9 °F 90% 30.00 in 7.0 mi Variable 3.5 mph - N/A   Overcast
9:53 AM 73.9 °F - 68.0 °F 82% 29.98 in 8.0 mi Variable 4.6 mph - N/A   Overcast
10:17 AM 75.9 °F - 68.0 °F 76% 29.95 in 10.0 mi WSW 4.6 mph - N/A   Mostly Cloudy
10:53 AM 78.1 °F - 69.1 °F 74% 29.95 in 10.0 mi Variable 6.9 mph - N/A   Mostly Cloudy
11:53 AM 81.0 °F 84.4 °F 70.0 °F 69% 29.93 in 10.0 mi Variable 4.6 mph - N/A   Overcast
12:53 PM 84.0 °F 88.4 °F 70.0 °F 63% 29.91 in 10.0 mi SW 8.1 mph - N/A   Mostly Cloudy
1:53 PM 84.9 °F 89.4 °F 70.0 °F 61% 29.89 in 10.0 mi Variable 6.9 mph - N/A   Mostly Cloudy
2:53 PM 88.0 °F 92.9 °F 70.0 °F 55% 29.87 in 10.0 mi Variable 6.9 mph - N/A   Mostly Cloudy
3:53 PM 89.1 °F 93.7 °F 69.1 °F 52% 29.86 in 10.0 mi WNW 12.7 mph 20.7 mph N/A   Partly Cloudy
4:53 PM 90.0 °F 95.4 °F 70.0 °F 52% 29.85 in 10.0 mi Variable 6.9 mph - N/A   Scattered Clouds
5:53 PM 88.0 °F 92.1 °F 69.1 °F 53% 29.87 in 10.0 mi Variable 4.6 mph - N/A   Mostly Cloudy
6:53 PM 87.1 °F 90.6 °F 68.0 °F 53% 29.89 in 10.0 mi West 3.5 mph - N/A   Scattered Clouds
7:53 PM 82.0 °F 84.5 °F 66.9 °F 60% 29.92 in 10.0 mi NNW 3.5 mph - N/A   Partly Cloudy
8:53 PM 77.0 °F - 66.9 °F 71% 29.94 in 10.0 mi Calm Calm - N/A   Clear
9:53 PM 75.0 °F - 66.9 °F 76% 29.98 in 10.0 mi SSW 3.5 mph - N/A   Clear
10:53 PM 73.0 °F - 66.9 °F 81% 30.01 in 10.0 mi Calm Calm - N/A   Clear
11:53 PM 73.0 °F - 63.0 °F 71% 30.01 in 10.0 mi ENE 3.5 mph - N/A   Clear